Content
SEND FEEDBACK

Daily
Averages
Monthly
Summary
Dominica

ROSEAU, DOMINICA


Home > Caribbean > Dominica
Elevation: 479 feet     Latitude: 14 36N     Longitude: 061 06W

WEATHER
 
SELECT A DAY
Number of Records: 198,902;   Date Range: 6/30/96 - 8/10/14
 
SHARE

PRINT THIS DATA

[ ← Previous Day ]
WEATHER ALMANAC - JANUARY 31, 2013
[ Next Day → ]
[ °C ]   °F
Weather ElementAverageHighLow
Temperature78.9 °F84.2 °F (11:09 am)73.4 °F (3:00 am)
Dewpoint67.7 °F70 °F (2:00 am)64.4 °F (1:00 pm)
Humidity68.4 %88 % (3:00 am)47 % (2:00 pm)
Barometer30.00 in30.04 in (8:30 am)29.95 in (3:00 pm)
Wind Speed14.6 mph20.7 mph (12:30 pm)
Wind Gust24.2 mph (2:00 am)
Weather ElementAverage
Visibility7.3 mi
Wind DirectionENE (70.6 °)

Weather ElementTotal
Precipitation---
Cooling Degree Days13.8 (Base 65)
Growing Degree Days28.8 (Base 50)
Averaged from 50 records on January 31, 2013
WEATHER CONDITIONS BREAKOUT
WIND DIRECTION BREAKOUT
WEATHER BY HOUR - JANUARY 31, 2013
[ °C ]   °F
Local TimeTemperatureDewpointHumidityBarometerVisibilityWind DirectionWind SpeedGust SpeedPrecipitationEventsConditions
12:30 AM75.2 °F68.0 °F78 %30.01 in6.2 miENE (60°)12.7 mphScattered Clouds
1:00 AM77.0 °F68.0 °F74 %29.98 in6.2 miENE (70°)11.5 mphMostly Cloudy
1:30 AM77.0 °F68.0 °F74 %29.98 in6.2 miEast (80°)10.4 mphMostly Cloudy
2:00 AM75.0 °F70.0 °F79 %30.00 in22.0 miEast (80°)11.5 mphClear
2:00 AM75.2 °F69.8 °F83 %29.98 in6.2 miEast (80°)11.5 mph24.2 mphMostly Cloudy
2:30 AM77.0 °F68.0 °F74 %29.98 in6.2 miEast (80°)11.5 mphPartly Cloudy
3:00 AM73.4 °F69.8 °F88 %29.98 in6.2 miENE (70°)11.5 mphMostly Cloudy
3:30 AM73.4 °F69.8 °F88 %29.98 in6.2 miEast (100°)8.1 mphMostly Cloudy
4:00 AM75.2 °F69.8 °F83 %29.98 in6.2 miENE (60°)9.2 mphMostly Cloudy
4:30 AM75.2 °F68.0 °F78 %29.98 in6.2 miENE (70°)10.4 mphMostly Cloudy
5:00 AM75.2 °F69.8 °F83 %29.98 in6.2 miENE (70°)8.1 mphMostly Cloudy
5:30 AM75.2 °F68.0 °F78 %29.98 in6.2 miENE (70°)9.2 mphScattered Clouds
6:00 AM75.2 °F68.0 °F78 %29.98 in6.2 miENE (60°)10.4 mphScattered Clouds
6:30 AM75.2 °F68.0 °F78 %29.98 in6.2 miENE (60°)10.4 mphMostly Cloudy
7:00 AM75.2 °F68.0 °F78 %30.01 in6.2 miENE (70°)11.5 mphScattered Clouds
7:30 AM77.0 °F66.2 °F69 %30.01 in6.2 miENE (70°)16.1 mphPartly Cloudy
8:00 AM78.0 °F67.0 °F60 %30.03 in9.0 miENE (70°)16.1 mphPartly Cloudy
8:00 AM78.8 °F66.2 °F65 %30.01 in6.2 miENE (70°)16.1 mphPartly Cloudy
8:30 AM78.8 °F68.0 °F69 %30.04 in6.2 miEast (80°)16.1 mphPartly Cloudy
9:00 AM80.6 °F68.0 °F65 %30.04 in6.2 miEast (80°)18.4 mphPartly Cloudy
9:30 AM80.6 °F68.0 °F65 %30.04 in6.2 miENE (60°)16.1 mphPartly Cloudy
10:00 AM80.6 °F68.0 °F65 %30.04 in6.2 miENE (70°)18.4 mphMostly Cloudy
10:30 AM80.6 °F68.0 °F65 %30.04 in6.2 miEast (80°)19.6 mphMostly Cloudy
11:09 AM84.2 °F68.0 °F58 %30.04 in6.2 miEast (80°)19.6 mphMostly Cloudy
11:30 AM82.4 °F66.2 °F58 %30.04 in6.2 miEast (90°)19.6 mphScattered Clouds
12:00 PM84.2 °F66.2 °F55 %30.04 in6.2 miEast (80°)19.6 mphScattered Clouds
12:30 PM84.2 °F66.2 °F55 %30.01 in6.2 miEast (80°)20.7 mphScattered Clouds
1:00 PM84.2 °F64.4 °F51 %30.01 in6.2 miEast (80°)18.4 mphScattered Clouds
1:30 PM84.2 °F66.2 °F55 %29.98 in6.2 miEast (80°)18.4 mphScattered Clouds
2:00 PM84.0 °F67.0 °F47 %29.99 in16.0 miENE (70°)17.3 mphPartly Cloudy
2:00 PM84.2 °F66.2 °F55 %29.98 in6.2 miEast (80°)18.4 mphScattered Clouds
2:30 PM84.2 °F66.2 °F55 %29.98 in6.2 miEast (90°)18.4 mphScattered Clouds
3:00 PM84.2 °F68.0 °F58 %29.95 in6.2 miEast (90°)18.4 mphScattered Clouds
3:30 PM82.4 °F68.0 °F62 %29.95 in6.2 miENE (70°)19.6 mphScattered Clouds
4:00 PM82.4 °F68.0 °F62 %29.95 in6.2 miENE (70°)18.4 mphScattered Clouds
5:00 PM80.6 °F68.0 °F65 %29.95 in6.2 miENE (60°)13.8 mphScattered Clouds
5:30 PM80.6 °F66.2 °F61 %29.98 in6.2 miENE (60°)13.8 mphScattered Clouds
6:00 PM78.8 °F66.2 °F65 %29.98 in6.2 miENE (60°)12.7 mphScattered Clouds
6:30 PM78.8 °F68.0 °F69 %29.98 in6.2 miENE (60°)11.5 mphScattered Clouds
7:00 PM78.8 °F68.0 °F69 %29.98 in6.2 miENE (60°)12.7 mphPartly Cloudy
7:30 PM78.8 °F68.0 °F69 %29.98 in6.2 miENE (60°)12.7 mphMostly Cloudy
8:00 PM78.0 °F68.0 °F63 %30.00 in31.0 miENE (60°)13.8 mphClear
8:00 PM77.0 °F68.0 °F74 %29.98 in6.2 miENE (60°)13.8 mphMostly Cloudy
8:30 PM77.0 °F68.0 °F74 %29.98 in6.2 miENE (60°)11.5 mphScattered Clouds
9:00 PM78.8 °F68.0 °F69 %30.01 in6.2 miENE (60°)13.8 mphMostly Cloudy
9:30 PM78.8 °F68.0 °F69 %30.01 in6.2 miENE (60°)13.8 mph
10:00 PM78.8 °F68.0 °F69 %30.01 in6.2 miENE (60°)13.8 mphMostly Cloudy
10:30 PM77.0 °F66.2 °F69 %30.01 in6.2 miENE (60°)13.8 mphScattered Clouds
11:00 PM77.0 °F68.0 °F74 %30.01 in6.2 miENE (70°)18.4 mphMostly Cloudy
11:30 PM77.0 °F68.0 °F74 %29.98 in6.2 miENE (60°)17.3 mphScattered Clouds
Hourly data recorded from TFFF, located miles away from Roseau, Dominica







STORIES FROM OUR PARTNERS